| time (UTC) | temp F | wind direction | speed MPH | gust MPH | rain 1hr in | rain 24hr in | rain mn in | humidity % | barometer mb |
| 20260505190417 | 51 | 70 | 2.0 | 5.0 | 0.00 | 0.12 | 0.09 | 89 | 1006.6 |
| 20260505185917 | 51 | 70 | 2.0 | 5.0 | 0.00 | 0.12 | 0.09 | 88 | 1006.5 |
| 20260505185625 | 51 | 70 | 2.0 | 5.0 | 0.00 | 0.12 | 0.09 | 88 | 1006.5 |
| 20260505184917 | 51 | 39 | 3.0 | 9.0 | 0.00 | 0.12 | 0.09 | 88 | 1006.5 |
| 20260505184625 | 51 | 351 | 3.0 | 9.0 | 0.00 | 0.12 | 0.09 | 88 | 1006.5 |
| 20260505184417 | 51 | 42 | 3.0 | 11.0 | 0.00 | 0.12 | 0.09 | 88 | 1006.5 |
| 20260505183918 | 51 | 43 | 3.0 | 11.0 | 0.00 | 0.12 | 0.09 | 87 | 1006.5 |
| 20260505183625 | 51 | 45 | 3.0 | 7.0 | 0.00 | 0.12 | 0.09 | 88 | 1006.5 |
| 20260505183417 | 51 | 33 | 3.0 | 8.0 | 0.00 | 0.12 | 0.09 | 88 | 1006.5 |
| 20260505182918 | 51 | 36 | 3.0 | 8.0 | 0.00 | 0.12 | 0.09 | 88 | 1006.6 |
| 20260505182625 | 51 | 349 | 3.0 | 7.0 | 0.00 | 0.12 | 0.09 | 87 | 1006.5 |
| 20260505182417 | 51 | 37 | 3.0 | 8.0 | 0.00 | 0.12 | 0.09 | 87 | 1006.5 |
| 20260505181625 | 51 | 78 | 3.0 | 9.0 | 0.00 | 0.12 | 0.09 | 88 | 1006.7 |
| 20260505180918 | 51 | 64 | 2.0 | 9.0 | 0.00 | 0.12 | 0.09 | 88 | 1006.7 |
| 20260505180625 | 52 | 61 | 4.0 | 9.0 | 0.00 | 0.12 | 0.09 | 88 | 1006.7 |
| 20260505180418 | 51 | 50 | 3.0 | 9.0 | 0.00 | 0.12 | 0.09 | 88 | 1006.7 |
| 20260505175917 | 52 | 48 | 4.0 | 11.0 | 0.00 | 0.12 | 0.09 | 88 | 1006.7 |
| 20260505175625 | 52 | 45 | 4.0 | 11.0 | 0.00 | 0.12 | 0.09 | 88 | 1006.7 |
| 20260505175418 | 52 | 51 | 4.0 | 11.0 | 0.00 | 0.12 | 0.09 | 88 | 1006.7 |
| 20260505174918 | 52 | 27 | 3.0 | 10.0 | 0.00 | 0.12 | 0.09 | 88 | 1006.7 |
| 20260505174625 | 52 | 353 | 2.0 | 5.0 | 0.00 | 0.12 | 0.09 | 88 | 1006.7 |
| 20260505174417 | 52 | 357 | 2.0 | 8.0 | 0.00 | 0.12 | 0.09 | 88 | 1006.7 |
| 20260505173625 | 52 | 344 | 3.0 | 8.0 | 0.00 | 0.12 | 0.09 | 87 | 1006.7 |
| 20260505172918 | 52 | 21 | 2.0 | 6.0 | 0.00 | 0.12 | 0.09 | 87 | 1006.7 |
| 20260505172625 | 52 | 12 | 2.0 | 5.0 | 0.00 | 0.12 | 0.09 | 87 | 1006.8 |
| 20260505172418 | 52 | 31 | 3.0 | 12.0 | 0.00 | 0.12 | 0.09 | 87 | 1006.8 |
| 20260505171917 | 52 | 41 | 3.0 | 12.0 | 0.00 | 0.12 | 0.09 | 87 | 1006.8 |
| 20260505171418 | 52 | 47 | 3.0 | 9.0 | 0.00 | 0.12 | 0.09 | 87 | 1006.8 |
| 20260505170918 | 52 | 27 | 3.0 | 10.0 | 0.00 | 0.12 | 0.09 | 87 | 1006.8 |
| 20260505165918 | 52 | 12 | 3.0 | 9.0 | 0.00 | 0.12 | 0.09 | 87 | 1006.8 |
| 20260505165625 | 52 | 344 | 3.0 | 9.0 | 0.00 | 0.12 | 0.09 | 87 | 1006.8 |
| 20260505165417 | 52 | 31 | 3.0 | 9.0 | 0.00 | 0.12 | 0.09 | 87 | 1006.8 |
| 20260505164418 | 52 | 53 | 3.0 | 10.0 | 0.00 | 0.12 | 0.09 | 87 | 1006.7 |
| 20260505163918 | 52 | 49 | 4.0 | 11.0 | 0.00 | 0.12 | 0.09 | 87 | 1006.7 |
| 20260505163625 | 52 | 51 | 4.0 | 11.0 | 0.00 | 0.12 | 0.09 | 87 | 1006.6 |
| 20260505163419 | 52 | 54 | 4.0 | 11.0 | 0.00 | 0.12 | 0.09 | 87 | 1006.6 |
| 20260505162918 | 52 | 61 | 3.0 | 9.0 | 0.00 | 0.12 | 0.09 | 87 | 1006.7 |
| 20260505162625 | 52 | 66 | 2.0 | 5.0 | 0.00 | 0.12 | 0.09 | 87 | 1006.7 |
| 20260505162418 | 52 | 52 | 2.0 | 5.0 | 0.00 | 0.12 | 0.09 | 87 | 1006.7 |
| 20260505161918 | 52 | 41 | 2.0 | 5.0 | 0.00 | 0.12 | 0.09 | 87 | 1006.7 |
| 20260505161625 | 52 | 49 | 3.0 | 5.0 | 0.00 | 0.12 | 0.09 | 86 | 1006.8 |
| 20260505161419 | 52 | 29 | 3.0 | 6.0 | 0.00 | 0.12 | 0.09 | 86 | 1006.8 |
| 20260505160918 | 52 | 23 | 3.0 | 8.0 | 0.00 | 0.12 | 0.09 | 86 | 1006.8 |
| 20260505160625 | 52 | 1 | 3.0 | 8.0 | 0.00 | 0.12 | 0.09 | 86 | 1006.8 |
| 20260505160418 | 52 | 41 | 3.0 | 8.0 | 0.00 | 0.12 | 0.09 | 86 | 1006.8 |
| 20260505152625 | 53 | 64 | 3.0 | 11.0 | 0.00 | 0.12 | 0.09 | 86 | 1007.2 |
| 20260505152418 | 53 | 61 | 3.0 | 11.0 | 0.00 | 0.12 | 0.09 | 86 | 1007.2 |
| 20260505151917 | 53 | 63 | 3.0 | 9.0 | 0.00 | 0.12 | 0.09 | 86 | 1007.2 |
| 20260505151626 | 53 | 56 | 2.0 | 9.0 | 0.00 | 0.12 | 0.09 | 87 | 1007.3 |
| 20260505150418 | 53 | 60 | 3.0 | 10.0 | 0.00 | 0.12 | 0.09 | 87 | 1007.2 |
| 20260505140625 | 52 | 44 | 3.0 | 9.0 | 0.00 | 0.12 | 0.09 | 87 | 1007.5 |
| 20260505140418 | 52 | 55 | 3.0 | 9.0 | 0.00 | 0.12 | 0.09 | 87 | 1007.5 |
| 20260505124918 | 52 | 44 | 3.0 | 10.0 | 0.00 | 0.12 | 0.09 | 87 | 1007.9 |
| 20260505124625 | 52 | 68 | 3.0 | 9.0 | 0.00 | 0.12 | 0.09 | 88 | 1008.0 |
| 20260505124418 | 52 | 28 | 3.0 | 9.0 | 0.00 | 0.12 | 0.09 | 88 | 1008.0 |
| 20260505123917 | 52 | 24 | 3.0 | 8.0 | 0.00 | 0.12 | 0.09 | 88 | 1008.0 |
| 20260505122917 | 52 | 57 | 2.0 | 6.0 | 0.00 | 0.12 | 0.09 | 89 | 1008.0 |
| 20260505122625 | 52 | 57 | 2.0 | 5.0 | 0.00 | 0.12 | 0.09 | 89 | 1008.0 |
| 20260505122418 | 52 | 58 | 2.0 | 5.0 | 0.00 | 0.12 | 0.09 | 89 | 1008.0 |
| 20260505121918 | 52 | 58 | 2.0 | 4.0 | 0.00 | 0.12 | 0.09 | 89 | 1008.0 |
| 20260505121625 | 52 | 57 | 2.0 | 3.0 | 0.00 | 0.12 | 0.09 | 89 | 1008.1 |
| 20260505121418 | 52 | 58 | 2.0 | 4.0 | 0.00 | 0.12 | 0.09 | 89 | 1008.1 |
| 20260505120918 | 52 | 52 | 3.0 | 8.0 | 0.00 | 0.12 | 0.09 | 88 | 1008.0 |
| 20260505120626 | 52 | 59 | 3.0 | 8.0 | 0.00 | 0.12 | 0.09 | 89 | 1008.1 |
| 20260505120418 | 52 | 47 | 3.0 | 8.0 | 0.00 | 0.12 | 0.09 | 89 | 1008.1 |
| 20260505115918 | 52 | 50 | 3.0 | 9.0 | 0.00 | 0.12 | 0.09 | 88 | 1008.0 |
| 20260505115625 | 52 | 66 | 3.0 | 9.0 | 0.00 | 0.12 | 0.09 | 88 | 1008.1 |
| 20260505115418 | 52 | 51 | 3.0 | 9.0 | 0.00 | 0.12 | 0.09 | 88 | 1008.1 |
| 20260505114917 | 52 | 46 | 3.0 | 9.0 | 0.00 | 0.12 | 0.09 | 90 | 1008.1 |
| 20260505114418 | 52 | 69 | 3.0 | 9.0 | 0.00 | 0.12 | 0.09 | 89 | 1008.1 |
| 20260505113918 | 51 | 69 | 3.0 | 10.0 | 0.00 | 0.12 | 0.09 | 90 | 1008.2 |
| 20260505113626 | 51 | 47 | 3.0 | 10.0 | 0.01 | 0.12 | 0.09 | 89 | 1008.1 |
| 20260505113418 | 51 | 48 | 4.0 | 10.0 | 0.01 | 0.12 | 0.09 | 89 | 1008.1 |
| 20260505112625 | 51 | 41 | 3.0 | 9.0 | 0.01 | 0.12 | 0.09 | 89 | 1008.2 |
| 20260505112418 | 51 | 42 | 3.0 | 9.0 | 0.01 | 0.12 | 0.09 | 89 | 1008.2 |
| 20260505111918 | 51 | 33 | 3.0 | 11.0 | 0.01 | 0.12 | 0.09 | 90 | 1008.2 |
| 20260505111625 | 51 | 47 | 4.0 | 11.0 | 0.01 | 0.12 | 0.09 | 89 | 1008.1 |
| 20260505111417 | 51 | 34 | 4.0 | 11.0 | 0.01 | 0.12 | 0.09 | 89 | 1008.1 |
| 20260505110917 | 51 | 47 | 3.0 | 10.0 | 0.01 | 0.12 | 0.09 | 90 | 1008.2 |
| 20260505110626 | 51 | 73 | 3.0 | 10.0 | 0.02 | 0.12 | 0.09 | 90 | 1008.2 |
| 20260505110418 | 51 | 56 | 3.0 | 10.0 | 0.02 | 0.12 | 0.09 | 90 | 1008.2 |
| 20260505101627 | 51 | 66 | 2.0 | 6.0 | 0.02 | 0.11 | 0.09 | 90 | 1008.5 |
| 20260505101417 | 51 | 66 | 2.0 | 6.0 | 0.02 | 0.11 | 0.09 | 90 | 1008.5 |
| 20260505100918 | 51 | 68 | 2.0 | 6.0 | 0.02 | 0.11 | 0.09 | 90 | 1008.5 |
| 20260505100626 | 51 | 69 | 2.0 | 5.0 | 0.01 | 0.10 | 0.08 | 89 | 1008.5 |
| 20260505100417 | 51 | 48 | 3.0 | 9.0 | 0.01 | 0.10 | 0.08 | 89 | 1008.5 |
| 20260505095625 | 51 | 51 | 3.0 | 9.0 | 0.00 | 0.09 | 0.07 | 89 | 1008.5 |
| 20260505095418 | 51 | 48 | 2.0 | 9.0 | 0.00 | 0.09 | 0.07 | 89 | 1008.5 |
| 20260505094917 | 51 | 41 | 2.0 | 6.0 | 0.00 | 0.09 | 0.07 | 90 | 1008.5 |
| 20260505094625 | 51 | 40 | 2.0 | 6.0 | 0.00 | 0.09 | 0.07 | 89 | 1008.6 |
| 20260505094418 | 51 | 42 | 2.0 | 8.0 | 0.00 | 0.09 | 0.07 | 89 | 1008.6 |
| 20260505093919 | 51 | 43 | 2.0 | 8.0 | 0.00 | 0.09 | 0.07 | 89 | 1008.6 |
| 20260505093625 | 51 | 42 | 2.0 | 6.0 | 0.00 | 0.09 | 0.07 | 89 | 1008.6 |
| 20260505093418 | 51 | 42 | 2.0 | 8.0 | 0.00 | 0.09 | 0.07 | 89 | 1008.6 |
| 20260505092918 | 51 | 41 | 2.0 | 8.0 | 0.00 | 0.09 | 0.07 | 89 | 1008.6 |
| 20260505092625 | 51 | 41 | 2.0 | 5.0 | 0.00 | 0.09 | 0.07 | 89 | 1008.6 |
| 20260505091918 | 51 | 42 | 3.0 | 6.0 | 0.00 | 0.09 | 0.07 | 89 | 1008.6 |
| 20260505091625 | 51 | 41 | 3.0 | 6.0 | 0.00 | 0.09 | 0.07 | 89 | 1008.6 |
| 20260505091418 | 51 | 44 | 3.0 | 6.0 | 0.00 | 0.09 | 0.07 | 89 | 1008.6 |
| 20260505090918 | 51 | 46 | 3.0 | 6.0 | 0.00 | 0.09 | 0.07 | 90 | 1008.5 |
| 20260505090625 | 51 | 46 | 3.0 | 6.0 | 0.00 | 0.09 | 0.07 | 90 | 1008.6 |
| 20260505085918 | 51 | 41 | 3.0 | 9.0 | 0.00 | 0.09 | 0.07 | 89 | 1008.5 |
| 20260505085625 | 51 | 45 | 3.0 | 8.0 | 0.00 | 0.09 | 0.07 | 89 | 1008.5 |
| 20260505085418 | 51 | 34 | 2.0 | 8.0 | 0.00 | 0.09 | 0.07 | 89 | 1008.5 |
| 20260505084918 | 51 | 30 | 2.0 | 5.0 | 0.00 | 0.09 | 0.07 | 89 | 1008.4 |
| 20260505084626 | 51 | 30 | 2.0 | 5.0 | 0.00 | 0.09 | 0.07 | 89 | 1008.4 |
| 20260505083919 | 51 | 36 | 3.0 | 8.0 | 0.00 | 0.09 | 0.07 | 89 | 1008.4 |
| 20260505083627 | 51 | 36 | 3.0 | 8.0 | 0.01 | 0.09 | 0.07 | 89 | 1008.4 |
| 20260505083418 | 51 | 28 | 3.0 | 8.0 | 0.01 | 0.09 | 0.07 | 89 | 1008.4 |
| 20260505082918 | 51 | 26 | 2.0 | 8.0 | 0.01 | 0.09 | 0.07 | 89 | 1008.5 |
| 20260505082625 | 52 | 37 | 2.0 | 7.0 | 0.01 | 0.09 | 0.07 | 89 | 1008.5 |
| 20260505082418 | 52 | 40 | 3.0 | 7.0 | 0.01 | 0.09 | 0.07 | 89 | 1008.5 |
| 20260505081625 | 52 | 41 | 4.0 | 8.0 | 0.01 | 0.09 | 0.07 | 90 | 1008.4 |
| 20260505081418 | 52 | 44 | 3.0 | 8.0 | 0.01 | 0.09 | 0.07 | 90 | 1008.4 |
| 20260505080918 | 52 | 46 | 3.0 | 6.0 | 0.01 | 0.09 | 0.07 | 90 | 1008.3 |
| 20260505080626 | 52 | 45 | 3.0 | 5.0 | 0.01 | 0.09 | 0.07 | 90 | 1008.4 |
| 20260505080418 | 52 | 45 | 2.0 | 5.0 | 0.01 | 0.09 | 0.07 | 90 | 1008.4 |
| 20260505075919 | 52 | 43 | 2.0 | 4.0 | 0.01 | 0.09 | 0.07 | 90 | 1008.3 |
| 20260505075625 | 52 | 42 | 2.0 | 4.0 | 0.01 | 0.09 | 0.07 | 90 | 1008.3 |
| 20260505075418 | 52 | 43 | 2.0 | 8.0 | 0.01 | 0.09 | 0.07 | 90 | 1008.3 |
| 20260505074918 | 52 | 42 | 2.0 | 8.0 | 0.01 | 0.09 | 0.07 | 90 | 1008.3 |
| 20260505074625 | 52 | 41 | 1.0 | 8.0 | 0.01 | 0.09 | 0.07 | 90 | 1008.4 |
| 20260505074417 | 52 | 40 | 2.0 | 8.0 | 0.01 | 0.09 | 0.07 | 90 | 1008.4 |
| 20260505073917 | 52 | 39 | 3.0 | 8.0 | 0.01 | 0.09 | 0.07 | 90 | 1008.3 |
| 20260505073626 | 52 | 39 | 3.0 | 8.0 | 0.00 | 0.09 | 0.06 | 90 | 1008.3 |
| 20260505073418 | 52 | 39 | 3.0 | 8.0 | 0.00 | 0.09 | 0.06 | 90 | 1008.3 |
| 20260505072918 | 52 | 40 | 2.0 | 7.0 | 0.00 | 0.09 | 0.06 | 90 | 1008.3 |
| 20260505072418 | 52 | 41 | 2.0 | 6.0 | 0.00 | 0.09 | 0.06 | 90 | 1008.2 |
| 20260505071919 | 52 | 40 | 1.0 | 6.0 | 0.00 | 0.09 | 0.06 | 90 | 1008.3 |
| 20260505071625 | 52 | 40 | 2.0 | 5.0 | 0.00 | 0.09 | 0.06 | 90 | 1008.3 |
| 20260505071418 | 52 | 40 | 1.0 | 5.0 | 0.00 | 0.09 | 0.06 | 90 | 1008.3 |
| 20260505070918 | 52 | 40 | 2.0 | 4.0 | 0.00 | 0.09 | 0.06 | 90 | 1008.3 |
| 20260505070625 | 52 | 39 | 2.0 | 4.0 | 0.00 | 0.09 | 0.06 | 90 | 1008.3 |
| 20260505070418 | 52 | 40 | 2.0 | 5.0 | 0.00 | 0.09 | 0.06 | 90 | 1008.3 |
| 20260505065918 | 52 | 40 | 2.0 | 8.0 | 0.00 | 0.09 | 0.06 | 90 | 1008.3 |
| 20260505065626 | 52 | 39 | 2.0 | 8.0 | 0.00 | 0.09 | 0.06 | 90 | 1008.4 |
| 20260505065418 | 52 | 39 | 2.0 | 8.0 | 0.00 | 0.09 | 0.06 | 90 | 1008.4 |
| 20260505064918 | 52 | 39 | 2.0 | 7.0 | 0.00 | 0.09 | 0.06 | 90 | 1008.4 |
| 20260505064626 | 52 | 39 | 1.0 | 5.0 | 0.00 | 0.09 | 0.06 | 90 | 1008.4 |
| 20260505063919 | 52 | 37 | 2.0 | 7.0 | 0.00 | 0.09 | 0.06 | 90 | 1008.4 |
| 20260505063626 | 52 | 36 | 2.0 | 5.0 | 0.00 | 0.09 | 0.06 | 90 | 1008.4 |
| 20260505063418 | 52 | 37 | 2.0 | 5.0 | 0.00 | 0.09 | 0.06 | 90 | 1008.4 |
| 20260505062918 | 52 | 38 | 2.0 | 5.0 | 0.00 | 0.09 | 0.06 | 90 | 1008.6 |
| 20260505062626 | 53 | 37 | 2.0 | 5.0 | 0.00 | 0.09 | 0.06 | 90 | 1008.5 |
| 20260505062418 | 53 | 38 | 2.0 | 5.0 | 0.00 | 0.09 | 0.06 | 90 | 1008.5 |
| 20260505061918 | 53 | 39 | 1.0 | 4.0 | 0.00 | 0.09 | 0.06 | 90 | 1008.5 |
| 20260505061626 | 53 | 38 | 0.0 | 5.0 | 0.00 | 0.09 | 0.06 | 90 | 1008.5 |
| 20260505061418 | 53 | 39 | 1.0 | 5.0 | 0.00 | 0.09 | 0.06 | 90 | 1008.4 |
| 20260505060918 | 53 | 39 | 2.0 | 5.0 | 0.00 | 0.09 | 0.06 | 90 | 1008.5 |
| 20260505060625 | 53 | 39 | 1.0 | 4.0 | 0.00 | 0.09 | 0.06 | 90 | 1008.5 |
| 20260505060418 | 53 | 40 | 1.0 | 4.0 | 0.00 | 0.09 | 0.06 | 90 | 1008.5 |
| 20260505055918 | 53 | 40 | 1.0 | 3.0 | 0.00 | 0.09 | 0.06 | 90 | 1008.5 |
| 20260505055626 | 53 | 39 | 0.0 | 3.0 | 0.00 | 0.09 | 0.06 | 90 | 1008.4 |
| 20260505055418 | 53 | 40 | 1.0 | 3.0 | 0.00 | 0.09 | 0.06 | 90 | 1008.4 |
| 20260505054918 | 53 | 45 | 1.0 | 6.0 | 0.00 | 0.09 | 0.06 | 90 | 1008.4 |
| 20260505054625 | 53 | 39 | 1.0 | 6.0 | 0.00 | 0.09 | 0.06 | 90 | 1008.4 |
| 20260505054418 | 53 | 51 | 2.0 | 6.0 | 0.00 | 0.09 | 0.06 | 90 | 1008.4 |
| 20260505053918 | 53 | 45 | 2.0 | 8.0 | 0.00 | 0.09 | 0.06 | 90 | 1008.4 |
| 20260505052918 | 53 | 34 | 2.0 | 4.0 | 0.00 | 0.09 | 0.06 | 91 | 1008.4 |
| 20260505052626 | 53 | 33 | 2.0 | 4.0 | 0.00 | 0.09 | 0.06 | 90 | 1008.4 |
| 20260505051919 | 53 | 34 | 2.0 | 7.0 | 0.00 | 0.09 | 0.06 | 90 | 1008.4 |
| 20260505051626 | 53 | 34 | 3.0 | 7.0 | 0.00 | 0.09 | 0.06 | 90 | 1008.4 |
| 20260505051418 | 53 | 33 | 2.0 | 7.0 | 0.00 | 0.09 | 0.06 | 90 | 1008.4 |
| 20260505050918 | 53 | 31 | 2.0 | 7.0 | 0.00 | 0.09 | 0.06 | 90 | 1008.4 |
| 20260505050418 | 53 | 31 | 2.0 | 7.0 | 0.00 | 0.09 | 0.06 | 90 | 1008.4 |
| 20260505041626 | 56 | 97 | 1.0 | 6.0 | 0.01 | 0.09 | 0.06 | 91 | 1008.4 |
| 20260505041418 | 56 | 160 | 1.0 | 6.0 | 0.01 | 0.09 | 0.06 | 91 | 1008.4 |
| 20260505040918 | 56 | 0 | 0.0 | 3.0 | 0.01 | 0.09 | 0.06 | 91 | 1008.4 |
| 20260505040418 | 56 | 0 | 0.0 | 0.0 | 0.01 | 0.09 | 0.06 | 91 | 1008.3 |
| 20260505035626 | 56 | 172 | 0.0 | 0.0 | 0.00 | 0.08 | 0.06 | 91 | 1008.4 |
| 20260505035418 | 56 | 0 | 0.0 | 0.0 | 0.00 | 0.08 | 0.06 | 91 | 1008.4 |
| 20260505034626 | 56 | 172 | 0.0 | 0.0 | 0.01 | 0.08 | 0.06 | 91 | 1008.3 |
| 20260505033919 | 56 | 0 | 0.0 | 0.0 | 0.01 | 0.08 | 0.06 | 91 | 1008.3 |
| 20260505033626 | 56 | 172 | 0.0 | 0.0 | 0.02 | 0.08 | 0.06 | 91 | 1008.3 |
| 20260505033418 | 56 | 0 | 0.0 | 0.0 | 0.02 | 0.08 | 0.06 | 91 | 1008.3 |
| 20260505032918 | 56 | 0 | 0.0 | 1.0 | 0.02 | 0.08 | 0.06 | 91 | 1008.4 |
| 20260505032626 | 56 | 172 | 0.0 | 1.0 | 0.02 | 0.08 | 0.06 | 90 | 1008.4 |
| 20260505032418 | 56 | 0 | 0.0 | 3.0 | 0.02 | 0.08 | 0.06 | 90 | 1008.4 |
| 20260505031918 | 56 | 172 | 1.0 | 3.0 | 0.02 | 0.08 | 0.06 | 90 | 1008.4 |
| 20260505031626 | 56 | 172 | 1.0 | 3.0 | 0.02 | 0.08 | 0.06 | 90 | 1008.4 |
| 20260505031418 | 56 | 172 | 1.0 | 3.0 | 0.02 | 0.08 | 0.06 | 90 | 1008.4 |
| 20260505030919 | 56 | 172 | 1.0 | 3.0 | 0.02 | 0.08 | 0.06 | 90 | 1008.4 |
| 20260505030626 | 56 | 172 | 1.0 | 3.0 | 0.02 | 0.08 | 0.06 | 90 | 1008.5 |
| 20260505030420 | 56 | 0 | 0.0 | 3.0 | 0.02 | 0.08 | 0.06 | 90 | 1008.5 |
| 20260505025918 | 56 | 0 | 0.0 | 0.0 | 0.02 | 0.08 | 0.06 | 90 | 1008.5 |
| 20260505025626 | 56 | 172 | 0.0 | 0.0 | 0.02 | 0.08 | 0.06 | 90 | 1008.6 |
| 20260505025418 | 56 | 0 | 0.0 | 0.0 | 0.02 | 0.08 | 0.06 | 90 | 1008.6 |
| 20260505024918 | 56 | 0 | 0.0 | 0.0 | 0.02 | 0.08 | 0.06 | 90 | 1008.6 |
| 20260505024418 | 56 | 0 | 0.0 | 0.0 | 0.02 | 0.07 | 0.05 | 90 | 1008.7 |
| 20260505023918 | 56 | 0 | 0.0 | 0.0 | 0.02 | 0.07 | 0.05 | 90 | 1008.7 |
| 20260505023626 | 56 | 172 | 0.0 | 0.0 | 0.02 | 0.06 | 0.04 | 90 | 1008.6 |
| 20260505023418 | 56 | 0 | 0.0 | 0.0 | 0.02 | 0.06 | 0.04 | 90 | 1008.7 |
| 20260505022918 | 56 | 0 | 0.0 | 0.0 | 0.02 | 0.06 | 0.04 | 90 | 1008.7 |
| 20260505022418 | 56 | 0 | 0.0 | 0.0 | 0.02 | 0.06 | 0.04 | 90 | 1008.7 |
| 20260505021626 | 56 | 172 | 0.0 | 2.0 | 0.02 | 0.06 | 0.03 | 90 | 1008.7 |
| 20260505021419 | 56 | 0 | 0.0 | 2.0 | 0.02 | 0.06 | 0.03 | 90 | 1008.7 |
| 20260505020918 | 56 | 0 | 0.0 | 2.0 | 0.02 | 0.06 | 0.03 | 90 | 1008.7 |
| 20260505020626 | 56 | 172 | 0.0 | 2.0 | 0.02 | 0.06 | 0.03 | 90 | 1008.7 |
| 20260505020418 | 56 | 0 | 0.0 | 2.0 | 0.02 | 0.06 | 0.03 | 90 | 1008.7 |
| 20260505015919 | 56 | 0 | 0.0 | 2.0 | 0.03 | 0.06 | 0.03 | 89 | 1008.7 |
| 20260505015418 | 56 | 171 | 1.0 | 3.0 | 0.03 | 0.06 | 0.03 | 89 | 1008.7 |
| 20260505014626 | 56 | 172 | 2.0 | 3.0 | 0.02 | 0.05 | 0.02 | 89 | 1008.7 |
| 20260505014418 | 56 | 172 | 2.0 | 4.0 | 0.02 | 0.05 | 0.02 | 89 | 1008.8 |
| 20260505013626 | 56 | 172 | 3.0 | 5.0 | 0.02 | 0.04 | 0.02 | 89 | 1008.8 |
| 20260505013419 | 56 | 173 | 3.0 | 5.0 | 0.02 | 0.04 | 0.02 | 89 | 1008.8 |
| 20260505012919 | 57 | 175 | 3.0 | 5.0 | 0.02 | 0.04 | 0.02 | 90 | 1008.8 |
| 20260505012626 | 57 | 174 | 3.0 | 5.0 | 0.02 | 0.04 | 0.02 | 90 | 1008.8 |
| 20260505012418 | 57 | 178 | 3.0 | 5.0 | 0.02 | 0.04 | 0.02 | 90 | 1008.8 |
| 20260505011918 | 57 | 181 | 2.0 | 4.0 | 0.02 | 0.04 | 0.02 | 90 | 1008.9 |
| 20260505011419 | 57 | 183 | 2.0 | 4.0 | 0.01 | 0.03 | 0.01 | 89 | 1008.9 |
| 20260505010626 | 57 | 183 | 1.0 | 3.0 | 0.01 | 0.03 | 0.01 | 89 | 1008.9 |
| 20260505010418 | 57 | 184 | 1.0 | 4.0 | 0.01 | 0.03 | 0.01 | 89 | 1008.9 |
| 20260505005920 | 57 | 0 | 0.0 | 4.0 | 0.00 | 0.02 | 0.00 | 89 | 1008.9 |
| 20260505005626 | 57 | 183 | 0.0 | 0.0 | 0.00 | 0.02 | 0.00 | 90 | 1008.9 |
| 20260505004918 | 57 | 0 | 0.0 | 0.0 | 0.00 | 0.02 | 0.00 | 90 | 1009.0 |
| 20260505004626 | 57 | 183 | 0.0 | 0.0 | 0.00 | 0.02 | 0.00 | 90 | 1009.0 |
| 20260505004418 | 57 | 0 | 0.0 | 0.0 | 0.00 | 0.02 | 0.00 | 90 | 1008.9 |
| 20260505003919 | 57 | 0 | 0.0 | 0.0 | 0.00 | 0.02 | 0.00 | 90 | 1009.0 |
| 20260505003418 | 57 | 0 | 0.0 | 0.0 | 0.00 | 0.02 | 0.00 | 90 | 1009.1 |
| 20260505002919 | 57 | 0 | 0.0 | 0.0 | 0.00 | 0.02 | 0.00 | 90 | 1009.1 |
| 20260505002626 | 57 | 183 | 0.0 | 0.0 | 0.00 | 0.02 | 0.00 | 90 | 1009.1 |
| 20260505002418 | 57 | 0 | 0.0 | 0.0 | 0.00 | 0.02 | 0.00 | 90 | 1009.1 |
| 20260505001919 | 57 | 0 | 0.0 | 0.0 | 0.00 | 0.02 | 0.00 | 90 | 1009.2 |
| 20260505001418 | 57 | 0 | 0.0 | 0.0 | 0.00 | 0.02 | 0.00 | 90 | 1009.2 |
| 20260505000919 | 57 | 0 | 0.0 | 0.0 | 0.00 | 0.02 | 0.00 | 89 | 1009.3 |
| 20260505000420 | 57 | 0 | 0.0 | 0.0 | 0.00 | 0.02 | 0.00 | 89 | 1009.4 |
| 20260504235919 | 57 | 0 | 0.0 | 0.0 | 0.00 | 0.02 | 0.00 | 89 | 1009.3 |
| 20260504235626 | 57 | 183 | 0.0 | 0.0 | 0.00 | 0.02 | 0.00 | 89 | 1009.4 |
| 20260504235419 | 57 | 0 | 0.0 | 0.0 | 0.00 | 0.02 | 0.00 | 89 | 1009.4 |
| 20260504234918 | 57 | 0 | 0.0 | 0.0 | 0.00 | 0.02 | 0.00 | 89 | 1009.4 |
| 20260504234626 | 57 | 183 | 0.0 | 0.0 | 0.00 | 0.02 | 0.00 | 89 | 1009.4 |
| 20260504233918 | 57 | 0 | 0.0 | 0.0 | 0.00 | 0.02 | 0.00 | 89 | 1009.4 |
| 20260504233626 | 57 | 183 | 0.0 | 0.0 | 0.00 | 0.02 | 0.00 | 89 | 1009.5 |
| 20260504232919 | 57 | 0 | 0.0 | 0.0 | 0.00 | 0.02 | 0.00 | 89 | 1009.6 |
| 20260504232626 | 57 | 183 | 0.0 | 0.0 | 0.00 | 0.02 | 0.00 | 89 | 1009.6 |
| 20260504232419 | 57 | 0 | 0.0 | 0.0 | 0.00 | 0.02 | 0.00 | 89 | 1009.6 |
| 20260504231919 | 57 | 0 | 0.0 | 0.0 | 0.00 | 0.02 | 0.00 | 89 | 1009.6 |
| 20260504231418 | 57 | 0 | 0.0 | 0.0 | 0.00 | 0.02 | 0.00 | 89 | 1009.6 |
| 20260504230919 | 57 | 0 | 0.0 | 0.0 | 0.00 | 0.02 | 0.00 | 89 | 1009.7 |
| 20260504230626 | 57 | 183 | 0.0 | 0.0 | 0.00 | 0.02 | 0.00 | 89 | 1009.7 |
| 20260504230419 | 57 | 0 | 0.0 | 0.0 | 0.00 | 0.02 | 0.00 | 89 | 1009.7 |
| 20260504225918 | 57 | 0 | 0.0 | 0.0 | 0.00 | 0.02 | 0.00 | 89 | 1009.8 |
| 20260504225419 | 57 | 0 | 0.0 | 0.0 | 0.00 | 0.02 | 0.00 | 89 | 1009.8 |
| 20260504224919 | 57 | 0 | 0.0 | 0.0 | 0.00 | 0.02 | 0.00 | 89 | 1009.8 |
| 20260504224626 | 57 | 183 | 0.0 | 0.0 | 0.01 | 0.02 | 0.00 | 89 | 1009.9 |
| 20260504224419 | 57 | 0 | 0.0 | 0.0 | 0.01 | 0.02 | 0.00 | 89 | 1009.9 |
| 20260504223626 | 57 | 183 | 0.0 | 0.0 | 0.01 | 0.02 | 0.00 | 88 | 1009.9 |
| 20260504223419 | 57 | 0 | 0.0 | 0.0 | 0.01 | 0.02 | 0.00 | 88 | 1009.9 |
| 20260504222918 | 57 | 0 | 0.0 | 0.0 | 0.01 | 0.02 | 0.00 | 88 | 1009.9 |
| 20260504222626 | 57 | 183 | 0.0 | 0.0 | 0.01 | 0.02 | 0.00 | 88 | 1010.1 |
| 20260504222418 | 57 | 0 | 0.0 | 0.0 | 0.01 | 0.02 | 0.00 | 88 | 1010.1 |
| 20260504221918 | 57 | 0 | 0.0 | 0.0 | 0.01 | 0.02 | 0.00 | 88 | 1010.1 |
| 20260504221626 | 57 | 183 | 0.0 | 0.0 | 0.01 | 0.02 | 0.00 | 88 | 1010.2 |
| 20260504221419 | 57 | 0 | 0.0 | 0.0 | 0.01 | 0.02 | 0.00 | 88 | 1010.1 |
| 20260504220918 | 57 | 0 | 0.0 | 0.0 | 0.01 | 0.02 | 0.00 | 88 | 1010.2 |
| 20260504220626 | 57 | 183 | 0.0 | 0.0 | 0.01 | 0.02 | 0.00 | 88 | 1010.3 |
| 20260504220418 | 57 | 0 | 0.0 | 0.0 | 0.01 | 0.02 | 0.00 | 88 | 1010.3 |
| 20260504215922 | 57 | 0 | 0.0 | 0.0 | 0.01 | 0.02 | 0.00 | 88 | 1010.3 |
| 20260504215627 | 57 | 183 | 0.0 | 0.0 | 0.01 | 0.02 | 0.02 | 88 | 1010.3 |
| 20260504215419 | 57 | 0 | 0.0 | 0.0 | 0.01 | 0.02 | 0.02 | 88 | 1010.3 |
| 20260504214418 | 57 | 0 | 0.0 | 0.0 | 0.00 | 0.02 | 0.02 | 88 | 1010.4 |
| 20260504213919 | 57 | 0 | 0.0 | 0.0 | 0.00 | 0.02 | 0.02 | 88 | 1010.4 |
| 20260504213419 | 57 | 0 | 0.0 | 0.0 | 0.00 | 0.02 | 0.02 | 88 | 1010.4 |
| 20260504212918 | 57 | 0 | 0.0 | 0.0 | 0.00 | 0.02 | 0.02 | 88 | 1010.4 |
| 20260504212626 | 58 | 183 | 0.0 | 0.0 | 0.00 | 0.02 | 0.02 | 87 | 1010.4 |
| 20260504212419 | 58 | 0 | 0.0 | 0.0 | 0.00 | 0.02 | 0.02 | 87 | 1010.4 |
| 20260504210919 | 58 | 0 | 0.0 | 0.0 | 0.00 | 0.02 | 0.02 | 87 | 1010.4 |
| 20260504210626 | 58 | 183 | 0.0 | 0.0 | 0.00 | 0.02 | 0.02 | 87 | 1010.5 |
| 20260504210419 | 58 | 0 | 0.0 | 0.0 | 0.00 | 0.02 | 0.02 | 87 | 1010.5 |
| 20260504205419 | 58 | 0 | 0.0 | 0.0 | 0.00 | 0.02 | 0.02 | 87 | 1010.4 |
| 20260504204919 | 58 | 0 | 0.0 | 0.0 | 0.00 | 0.02 | 0.02 | 87 | 1010.5 |
| 20260504204626 | 58 | 183 | 0.0 | 0.0 | 0.00 | 0.02 | 0.02 | 87 | 1010.5 |
| 20260504204418 | 58 | 0 | 0.0 | 0.0 | 0.00 | 0.02 | 0.02 | 87 | 1010.5 |
| 20260504203918 | 58 | 0 | 0.0 | 0.0 | 0.00 | 0.02 | 0.02 | 87 | 1010.5 |
| 20260504203626 | 58 | 183 | 0.0 | 0.0 | 0.00 | 0.02 | 0.02 | 87 | 1010.6 |
| 20260504202919 | 58 | 0 | 0.0 | 0.0 | 0.00 | 0.02 | 0.02 | 87 | 1010.5 |
| 20260504201919 | 58 | 0 | 0.0 | 0.0 | 0.01 | 0.02 | 0.02 | 87 | 1010.6 |
| 20260504201626 | 58 | 183 | 0.0 | 0.0 | 0.02 | 0.02 | 0.02 | 86 | 1010.5 |
| 20260504201418 | 58 | 0 | 0.0 | 0.0 | 0.01 | 0.02 | 0.02 | 87 | 1010.5 |
| 20260504200918 | 58 | 0 | 0.0 | 0.0 | 0.02 | 0.02 | 0.02 | 86 | 1010.5 |
| 20260504200626 | 58 | 183 | 0.0 | 0.0 | 0.02 | 0.02 | 0.02 | 86 | 1010.5 |
| 20260504200418 | 58 | 0 | 0.0 | 0.0 | 0.02 | 0.02 | 0.02 | 86 | 1010.5 |
| 20260504195919 | 58 | 0 | 0.0 | 0.0 | 0.02 | 0.02 | 0.02 | 86 | 1010.5 |
| 20260504195626 | 59 | 183 | 0.0 | 0.0 | 0.02 | 0.02 | 0.02 | 86 | 1010.5 |
| 20260504195419 | 59 | 0 | 0.0 | 0.0 | 0.02 | 0.02 | 0.02 | 86 | 1010.5 |
| 20260504194626 | 59 | 183 | 0.0 | 3.0 | 0.02 | 0.02 | 0.02 | 85 | 1010.5 |
| 20260504194418 | 59 | 184 | 1.0 | 3.0 | 0.02 | 0.02 | 0.02 | 85 | 1010.5 |
| 20260504193626 | 59 | 183 | 1.0 | 3.0 | 0.02 | 0.02 | 0.02 | 85 | 1010.5 |
| 20260504193418 | 59 | 184 | 1.0 | 4.0 | 0.02 | 0.02 | 0.02 | 85 | 1010.5 |
| 20260504192918 | 59 | 184 | 2.0 | 4.0 | 0.02 | 0.02 | 0.02 | 84 | 1010.5 |
| 20260504192626 | 59 | 183 | 1.0 | 4.0 | 0.01 | 0.01 | 0.01 | 84 | 1010.4 |
| 20260504192418 | 59 | 184 | 1.0 | 4.0 | 0.01 | 0.01 | 0.01 | 84 | 1010.4 |
| 20260504191919 | 59 | 184 | 1.0 | 4.0 | 0.01 | 0.01 | 0.01 | 84 | 1010.4 |
| 20260504191626 | 60 | 183 | 1.0 | 4.0 | 0.01 | 0.01 | 0.01 | 83 | 1010.4 |
| 20260504191418 | 60 | 184 | 1.0 | 4.0 | 0.01 | 0.01 | 0.01 | 83 | 1010.4 |
| 20260504190626 | 60 | 183 | 0.0 | 1.0 | 0.00 | 0.00 | 0.00 | 83 | 1010.3 |